TimeHST,TemperatureF,Dew PointF,Humidity,Sea Level PressureIn,VisibilityMPH,Wind Direction,Wind SpeedMPH,Gust SpeedMPH,PrecipitationIn,Events,Conditions,WindDirDegrees,DateUTC
12:56 AM,73.0,64.0,73,30.03,10.0,ESE,5.8,-,N/A,,Clear,110,2013-03-21 10:56:00
1:56 AM,72.0,63.0,73,30.01,10.0,East,5.8,-,N/A,,Clear,90,2013-03-21 11:56:00
2:56 AM,72.0,64.0,76,30.00,10.0,SE,4.6,-,N/A,,Clear,130,2013-03-21 12:56:00
3:56 AM,73.0,63.0,71,29.98,10.0,Calm,Calm,-,N/A,,Clear,0,2013-03-21 13:56:00
4:56 AM,71.1,61.0,70,29.99,10.0,SSW,3.5,-,N/A,,Clear,200,2013-03-21 14:56:00
5:56 AM,71.1,59.0,66,29.99,10.0,SSE,6.9,-,N/A,,Clear,150,2013-03-21 15:56:00
6:56 AM,73.0,57.0,57,30.01,10.0,SSE,5.8,-,N/A,,Clear,150,2013-03-21 16:56:00
7:56 AM,75.0,55.9,51,30.02,10.0,SSE,8.1,-,N/A,,Clear,150,2013-03-21 17:56:00
8:56 AM,79.0,60.1,52,30.04,10.0,SSE,16.1,23.0,N/A,,Clear,150,2013-03-21 18:56:00
9:56 AM,80.1,64.0,58,30.03,10.0,SSE,13.8,24.2,N/A,,Clear,150,2013-03-21 19:56:00
10:56 AM,82.0,64.9,56,30.03,10.0,SSE,13.8,24.2,N/A,,Clear,160,2013-03-21 20:56:00
11:56 AM,82.0,66.0,58,30.01,10.0,SSE,12.7,27.6,N/A,,Clear,150,2013-03-21 21:56:00
12:56 PM,82.0,68.0,62,30.00,10.0,SSE,15.0,25.3,N/A,,Mostly Cloudy,160,2013-03-21 22:56:00
1:08 PM,82.4,66.2,58,29.99,10.0,SSE,16.1,26.5,N/A,,Scattered Clouds,150,2013-03-21 23:08:00
1:56 PM,82.9,68.0,60,29.98,10.0,SE,16.1,27.6,N/A,,Scattered Clouds,140,2013-03-21 23:56:00
2:56 PM,82.0,68.0,62,29.96,10.0,SSE,15.0,23.0,N/A,,Clear,160,2013-03-22 00:56:00
3:56 PM,81.0,69.1,67,29.95,10.0,SSE,16.1,24.2,N/A,,Clear,160,2013-03-22 01:56:00
4:44 PM,80.6,69.8,70,29.95,10.0,South,13.8,23.0,N/A,,Mostly Cloudy,170,2013-03-22 02:44:00
4:56 PM,81.0,71.1,72,29.96,10.0,South,15.0,24.2,N/A,,Mostly Cloudy,170,2013-03-22 02:56:00
5:14 PM,80.6,71.6,74,29.95,10.0,South,13.8,23.0,N/A,,Scattered Clouds,180,2013-03-22 03:14:00
5:56 PM,79.0,71.1,77,29.98,10.0,South,12.7,20.7,N/A,,Partly Cloudy,170,2013-03-22 03:56:00
6:36 PM,75.2,69.8,83,29.98,-9999.0,South,11.5,34.5,0.30,Rain,Heavy Rain,190,2013-03-22 04:36:00
6:45 PM,75.2,71.6,89,29.98,-9999.0,SSE,5.8,21.9,0.40,Rain,Rain,160,2013-03-22 04:45:00
6:56 PM,75.0,71.1,87,29.99,10.0,South,9.2,18.4,0.41,,Mostly Cloudy,170,2013-03-22 04:56:00
7:13 PM,75.2,71.6,89,29.99,10.0,South,9.2,-,N/A,,Scattered Clouds,170,2013-03-22 05:13:00
7:56 PM,-9999,-9999,N/A,30.02,10.0,SSE,6.9,-,0.00,,Mostly Cloudy,160,2013-03-22 05:56:00
8:22 PM,-9999,-9999,N/A,30.01,10.0,South,8.1,-,N/A,,Mostly Cloudy,170,2013-03-22 06:22:00
8:56 PM,-9999,-9999,N/A,30.03,10.0,South,8.1,-,N/A,,Mostly Cloudy,170,2013-03-22 06:56:00
9:10 PM,-9999,-9999,N/A,30.02,10.0,South,6.9,-,N/A,,Mostly Cloudy,170,2013-03-22 07:10:00
9:19 PM,-9999,-9999,N/A,30.03,10.0,South,8.1,-,N/A,,Mostly Cloudy,170,2013-03-22 07:19:00
9:56 PM,-9999,-9999,N/A,30.04,10.0,SSE,5.8,-,N/A,,Partly Cloudy,150,2013-03-22 07:56:00
10:56 PM,-9999,-9999,N/A,30.04,10.0,SSE,4.6,-,N/A,,Partly Cloudy,150,2013-03-22 08:56:00
11:56 PM,-9999,-9999,N/A,30.03,10.0,South,5.8,-,N/A,,Scattered Clouds,170,2013-03-22 09:56:00